Tracking 29040 objects as of 15-Jun-2024
HD Live streaming from Space Station
objects crossing your sky now

SL-6 R/B(2)

Track SL-6 R/B(2) now!


NORAD ID: 7629
Int'l Code: 1975-007D
Perigee: 5,366.5 km
Apogee: 34,954.7 km
Inclination: 68.9 °
Period: 716.8 minutes
Semi major axis: 26531 km
RCS: 7.0447 m2 (large)
Launch date: January 30, 1975
Source: Commonwealth of Independent States (former USSR) (CIS)
Launch site: PLESETSK MISSILE AND SPACE COMPLEX (PKMTR)

Note: This is a ROCKET BODY
Your satellite tracking list
Your tracking list is empty




NASA's NSSDC Master Catalog

Two Line Element Set (TLE):
1 07629U 75007D   24164.58398760  .00000418  00000-0  00000-0 0  9999
2 07629  68.8885 268.4663 5576037 316.7664  63.8236  2.00890184223243
Source of the keplerian elements: AFSPC